| time (UTC) | temp F | wind direction | speed MPH | gust MPH | rain 1hr in | rain 24hr in | rain mn in | humidity % | barometer mb |
| 20260504035604 | 55 | 191 | 0.0 | 1.0 | 0.00 | 0.01 | 0.01 | 68 | 1014.9 |
| 20260504034604 | 56 | 178 | 1.0 | 2.0 | 0.00 | 0.01 | 0.01 | 68 | 1015.0 |
| 20260504034104 | 56 | 309 | 1.0 | 2.0 | 0.00 | 0.01 | 0.01 | 68 | 1014.8 |
| 20260504033604 | 56 | 300 | 0.0 | 2.0 | 0.00 | 0.01 | 0.01 | 68 | 1014.6 |
| 20260504033104 | 56 | 336 | 0.0 | 6.0 | 0.00 | 0.01 | 0.01 | 68 | 1014.5 |
| 20260504032604 | 56 | 329 | 1.0 | 6.0 | 0.00 | 0.01 | 0.01 | 67 | 1014.6 |
| 20260504032104 | 56 | 1 | 1.0 | 6.0 | 0.00 | 0.01 | 0.01 | 67 | 1014.6 |
| 20260504031105 | 56 | 311 | 1.0 | 2.0 | 0.00 | 0.01 | 0.01 | 67 | 1014.2 |
| 20260504030104 | 56 | 240 | 1.0 | 3.0 | 0.00 | 0.01 | 0.01 | 66 | 1013.9 |
| 20260504025604 | 56 | 324 | 1.0 | 5.0 | 0.00 | 0.01 | 0.01 | 66 | 1013.9 |
| 20260504024103 | 57 | 310 | 1.0 | 6.0 | 0.00 | 0.01 | 0.01 | 66 | 1013.8 |
| 20260504023104 | 57 | 3 | 2.0 | 8.0 | 0.00 | 0.01 | 0.01 | 65 | 1013.5 |
| 20260504022604 | 58 | 351 | 2.0 | 7.0 | 0.00 | 0.01 | 0.01 | 65 | 1013.3 |
| 20260504022105 | 58 | 0 | 2.0 | 7.0 | 0.00 | 0.01 | 0.01 | 64 | 1013.2 |
| 20260504020607 | 60 | 339 | 1.0 | 9.0 | 0.00 | 0.01 | 0.01 | 63 | 1012.7 |
| 20260504020104 | 60 | 321 | 3.0 | 9.0 | 0.00 | 0.01 | 0.01 | 62 | 1012.6 |
| 20260504015605 | 61 | 342 | 2.0 | 9.0 | 0.00 | 0.01 | 0.01 | 61 | 1012.5 |
| 20260504015104 | 61 | 355 | 2.0 | 12.0 | 0.00 | 0.01 | 0.01 | 61 | 1012.3 |
| 20260504014604 | 61 | 332 | 3.0 | 12.0 | 0.00 | 0.01 | 0.01 | 60 | 1012.5 |
| 20260504014104 | 62 | 356 | 2.0 | 12.0 | 0.00 | 0.01 | 0.01 | 60 | 1012.5 |
| 20260504013604 | 62 | 0 | 2.0 | 12.0 | 0.00 | 0.01 | 0.01 | 59 | 1012.2 |
| 20260504013104 | 62 | 339 | 3.0 | 12.0 | 0.00 | 0.01 | 0.01 | 58 | 1012.4 |
| 20260504012604 | 63 | 298 | 4.0 | 9.0 | 0.00 | 0.01 | 0.01 | 58 | 1012.4 |
| 20260504012104 | 63 | 295 | 5.0 | 10.0 | 0.00 | 0.01 | 0.01 | 57 | 1012.4 |
| 20260504011604 | 64 | 318 | 3.0 | 10.0 | 0.00 | 0.01 | 0.01 | 57 | 1012.3 |
| 20260504011104 | 64 | 290 | 5.0 | 10.0 | 0.00 | 0.01 | 0.01 | 56 | 1012.2 |
| 20260504010104 | 66 | 357 | 5.0 | 9.0 | 0.00 | 0.01 | 0.01 | 54 | 1012.0 |
| 20260504005603 | 66 | 343 | 6.0 | 10.0 | 0.00 | 0.01 | 0.01 | 54 | 1012.0 |
| 20260504005105 | 66 | 309 | 6.0 | 12.0 | 0.00 | 0.01 | 0.01 | 54 | 1012.0 |
| 20260504004604 | 66 | 280 | 7.0 | 12.0 | 0.00 | 0.01 | 0.01 | 53 | 1012.0 |
| 20260504004104 | 67 | 276 | 6.0 | 12.0 | 0.00 | 0.01 | 0.01 | 52 | 1011.9 |
| 20260504003604 | 67 | 296 | 7.0 | 12.0 | 0.00 | 0.01 | 0.01 | 55 | 1011.9 |
| 20260504002604 | 68 | 277 | 6.0 | 10.0 | 0.00 | 0.01 | 0.01 | 53 | 1011.5 |
| 20260504002104 | 68 | 263 | 5.0 | 8.0 | 0.00 | 0.01 | 0.01 | 54 | 1011.3 |
| 20260504001606 | 66 | 282 | 1.0 | 3.0 | 0.00 | 0.01 | 0.01 | 60 | 1011.4 |
| 20260504000607 | 66 | 281 | 1.0 | 3.0 | 0.00 | 0.01 | 0.01 | 61 | 1011.5 |
| 20260504000104 | 65 | 283 | 2.0 | 3.0 | 0.00 | 0.01 | 0.01 | 61 | 1011.4 |
| 20260503235604 | 65 | 180 | 2.0 | 3.0 | 0.00 | 0.01 | 0.01 | 61 | 1011.3 |
| 20260503234604 | 65 | 76 | 2.0 | 5.0 | 0.00 | 0.01 | 0.01 | 62 | 1011.7 |
| 20260503234104 | 65 | 51 | 1.0 | 3.0 | 0.00 | 0.01 | 0.01 | 65 | 1011.8 |
| 20260503233604 | 64 | 53 | 0.0 | 3.0 | 0.00 | 0.01 | 0.01 | 65 | 1011.7 |
| 20260503233103 | 64 | 52 | 0.0 | 5.0 | 0.00 | 0.01 | 0.01 | 67 | 1011.7 |
| 20260503232604 | 63 | 74 | 1.0 | 5.0 | 0.00 | 0.01 | 0.01 | 66 | 1011.8 |
| 20260503232104 | 64 | 68 | 1.0 | 5.0 | 0.00 | 0.01 | 0.01 | 67 | 1012.0 |
| 20260503231604 | 64 | 16 | 3.0 | 7.0 | 0.00 | 0.01 | 0.01 | 66 | 1012.2 |
| 20260503231104 | 64 | 56 | 1.0 | 7.0 | 0.00 | 0.01 | 0.01 | 66 | 1012.2 |
| 20260503230104 | 64 | 80 | 2.0 | 5.0 | 0.00 | 0.01 | 0.01 | 64 | 1012.1 |
| 20260503225604 | 64 | 121 | 1.0 | 3.0 | 0.00 | 0.01 | 0.01 | 64 | 1012.2 |
| 20260503225104 | 64 | 121 | 1.0 | 3.0 | 0.00 | 0.01 | 0.01 | 66 | 1012.2 |
| 20260503224604 | 64 | 136 | 1.0 | 3.0 | 0.00 | 0.01 | 0.01 | 66 | 1012.2 |
| 20260503224104 | 64 | 140 | 0.0 | 2.0 | 0.00 | 0.01 | 0.01 | 67 | 1012.3 |
| 20260503223604 | 63 | 140 | 0.0 | 2.0 | 0.00 | 0.01 | 0.01 | 69 | 1012.5 |
| 20260503223104 | 63 | 136 | 1.0 | 2.0 | 0.00 | 0.01 | 0.01 | 70 | 1012.6 |
| 20260503222604 | 62 | 150 | 0.0 | 3.0 | 0.00 | 0.01 | 0.01 | 72 | 1012.6 |
| 20260503222104 | 62 | 149 | 1.0 | 3.0 | 0.00 | 0.01 | 0.01 | 72 | 1012.7 |
| 20260503221606 | 61 | 282 | 0.0 | 3.0 | 0.00 | 0.01 | 0.01 | 73 | 1012.7 |
| 20260503221104 | 60 | 271 | 2.0 | 5.0 | 0.00 | 0.01 | 0.01 | 73 | 1012.8 |
| 20260503220605 | 60 | 269 | 2.0 | 7.0 | 0.00 | 0.01 | 0.01 | 74 | 1012.8 |
| 20260503220104 | 60 | 293 | 3.0 | 7.0 | 0.00 | 0.01 | 0.01 | 74 | 1012.7 |
| 20260503215604 | 60 | 270 | 3.0 | 7.0 | 0.00 | 0.01 | 0.01 | 75 | 1012.8 |
| 20260503214605 | 60 | 294 | 3.0 | 7.0 | 0.00 | 0.01 | 0.01 | 75 | 1013.0 |
| 20260503214104 | 60 | 263 | 3.0 | 6.0 | 0.00 | 0.01 | 0.01 | 76 | 1012.9 |
| 20260503213104 | 60 | 253 | 5.0 | 6.0 | 0.00 | 0.01 | 0.01 | 76 | 1013.0 |
| 20260503212604 | 60 | 254 | 2.0 | 3.0 | 0.00 | 0.01 | 0.01 | 76 | 1013.0 |
| 20260503212104 | 60 | 237 | 2.0 | 7.0 | 0.00 | 0.01 | 0.01 | 76 | 1013.0 |
| 20260503211604 | 60 | 355 | 3.0 | 7.0 | 0.00 | 0.01 | 0.01 | 77 | 1013.0 |
| 20260503211104 | 59 | 236 | 2.0 | 5.0 | 0.00 | 0.01 | 0.01 | 78 | 1013.1 |
| 20260503210604 | 59 | 257 | 1.0 | 5.0 | 0.00 | 0.01 | 0.01 | 78 | 1013.1 |
| 20260503210105 | 59 | 285 | 2.0 | 5.0 | 0.00 | 0.01 | 0.01 | 78 | 1013.0 |
| 20260503205604 | 59 | 260 | 2.0 | 8.0 | 0.00 | 0.01 | 0.01 | 78 | 1013.0 |
| 20260503205104 | 59 | 262 | 3.0 | 8.0 | 0.00 | 0.01 | 0.01 | 78 | 1013.0 |
| 20260503204604 | 59 | 319 | 3.0 | 8.0 | 0.00 | 0.01 | 0.01 | 79 | 1013.0 |
| 20260503204105 | 59 | 301 | 2.0 | 6.0 | 0.00 | 0.01 | 0.01 | 79 | 1013.0 |
| 20260503203604 | 59 | 236 | 2.0 | 7.0 | 0.00 | 0.01 | 0.01 | 78 | 1013.0 |
| 20260503203104 | 59 | 281 | 3.0 | 8.0 | 0.00 | 0.01 | 0.01 | 79 | 1013.0 |
| 20260503202104 | 59 | 269 | 3.0 | 9.0 | 0.00 | 0.01 | 0.01 | 79 | 1013.0 |
| 20260503201606 | 59 | 275 | 3.0 | 6.0 | 0.00 | 0.01 | 0.01 | 80 | 1013.0 |
| 20260503201104 | 59 | 294 | 2.0 | 5.0 | 0.00 | 0.01 | 0.01 | 80 | 1013.0 |
| 20260503200607 | 59 | 278 | 2.0 | 7.0 | 0.00 | 0.01 | 0.01 | 80 | 1013.0 |
| 20260503200105 | 59 | 285 | 2.0 | 7.0 | 0.00 | 0.01 | 0.01 | 80 | 1013.0 |
| 20260503195604 | 58 | 272 | 3.0 | 6.0 | 0.00 | 0.01 | 0.01 | 81 | 1013.1 |
| 20260503194604 | 58 | 282 | 3.0 | 7.0 | 0.00 | 0.01 | 0.01 | 81 | 1013.4 |
| 20260503193604 | 58 | 277 | 3.0 | 7.0 | 0.00 | 0.01 | 0.01 | 82 | 1013.5 |
| 20260503193105 | 58 | 286 | 2.0 | 7.0 | 0.00 | 0.01 | 0.01 | 82 | 1013.5 |
| 20260503192604 | 58 | 299 | 4.0 | 7.0 | 0.00 | 0.01 | 0.01 | 82 | 1013.5 |
| 20260503191604 | 58 | 323 | 1.0 | 6.0 | 0.00 | 0.01 | 0.01 | 84 | 1013.5 |
| 20260503191104 | 58 | 299 | 3.0 | 7.0 | 0.00 | 0.01 | 0.01 | 83 | 1013.6 |
| 20260503190604 | 58 | 264 | 3.0 | 7.0 | 0.00 | 0.01 | 0.01 | 83 | 1013.5 |
| 20260503190104 | 58 | 280 | 3.0 | 7.0 | 0.00 | 0.01 | 0.01 | 84 | 1013.5 |
| 20260503185604 | 58 | 274 | 2.0 | 6.0 | 0.00 | 0.01 | 0.01 | 85 | 1013.5 |
| 20260503185103 | 58 | 271 | 2.0 | 6.0 | 0.00 | 0.01 | 0.01 | 84 | 1013.5 |
| 20260503184604 | 58 | 279 | 2.0 | 6.0 | 0.00 | 0.01 | 0.01 | 85 | 1013.5 |
| 20260503184104 | 57 | 281 | 3.0 | 6.0 | 0.00 | 0.01 | 0.01 | 86 | 1013.5 |
| 20260503183104 | 57 | 308 | 2.0 | 7.0 | 0.00 | 0.01 | 0.01 | 87 | 1013.5 |
| 20260503182605 | 57 | 299 | 3.0 | 7.0 | 0.00 | 0.01 | 0.01 | 87 | 1013.4 |
| 20260503182104 | 57 | 278 | 3.0 | 7.0 | 0.00 | 0.01 | 0.01 | 88 | 1013.4 |
| 20260503181605 | 57 | 275 | 3.0 | 8.0 | 0.00 | 0.01 | 0.01 | 88 | 1013.4 |
| 20260503181104 | 57 | 284 | 4.0 | 8.0 | 0.00 | 0.01 | 0.01 | 89 | 1013.4 |
| 20260503175104 | 58 | 296 | 6.0 | 10.0 | 0.00 | 0.01 | 0.01 | 92 | 1013.2 |
| 20260503173605 | 58 | 279 | 6.0 | 9.0 | 0.00 | 0.01 | 0.01 | 94 | 1013.2 |
| 20260503172604 | 57 | 278 | 4.0 | 8.0 | 0.00 | 0.01 | 0.01 | 96 | 1013.2 |
| 20260503172104 | 57 | 280 | 5.0 | 8.0 | 0.00 | 0.01 | 0.01 | 99 | 1013.2 |
| 20260503171604 | 57 | 287 | 5.0 | 8.0 | 0.00 | 0.01 | 0.01 | 100 | 1013.2 |
| 20260503171104 | 57 | 277 | 4.0 | 8.0 | 0.00 | 0.01 | 0.01 | 100 | 1013.2 |
| 20260503170604 | 57 | 293 | 3.0 | 6.0 | 0.00 | 0.01 | 0.01 | 100 | 1013.1 |
| 20260503170107 | 56 | 309 | 2.0 | 5.0 | 0.00 | 0.01 | 0.01 | 100 | 1013.0 |
| 20260503160104 | 56 | 289 | 2.0 | 5.0 | 0.00 | 0.01 | 0.01 | 100 | 1013.1 |
| 20260503150606 | 56 | 287 | 2.0 | 3.0 | 0.00 | 0.01 | 0.01 | 100 | 1012.7 |
| 20260503140105 | 56 | 279 | 1.0 | 3.0 | 0.00 | 0.01 | 0.01 | 96 | 1012.6 |
| 20260503131104 | 56 | 322 | 2.0 | 3.0 | 0.01 | 0.01 | 0.01 | 95 | 1011.7 |
| 20260503130104 | 56 | 323 | 0.0 | 2.0 | 0.01 | 0.01 | 0.01 | 95 | 1011.5 |
| 20260503110607 | 56 | 324 | 0.0 | 3.0 | 0.00 | 0.00 | 0.00 | 92 | 1011.5 |
| 20260503110103 | 56 | 323 | 1.0 | 3.0 | 0.00 | 0.00 | 0.00 | 92 | 1011.5 |
| 20260503100104 | 57 | 330 | 1.0 | 3.0 | 0.00 | 0.00 | 0.00 | 89 | 1011.5 |
| 20260503090104 | 58 | 314 | 1.0 | 5.0 | 0.00 | 0.00 | 0.00 | 85 | 1012.1 |
| 20260503081104 | 61 | 338 | 0.0 | 2.0 | 0.00 | 0.00 | 0.00 | 75 | 1012.4 |
| 20260503080104 | 61 | 332 | 0.0 | 2.0 | 0.00 | 0.00 | 0.00 | 74 | 1012.6 |
| 20260503072604 | 62 | 319 | 0.0 | 1.0 | 0.00 | 0.00 | 0.00 | 69 | 1012.5 |
| 20260503072105 | 62 | 319 | 0.0 | 1.0 | 0.00 | 0.00 | 0.00 | 68 | 1012.4 |
| 20260503071604 | 63 | 319 | 0.0 | 1.0 | 0.00 | 0.00 | 0.00 | 67 | 1012.4 |
| 20260503070606 | 63 | 319 | 0.0 | 1.0 | 0.00 | 0.00 | 0.00 | 66 | 1012.5 |
| 20260503070104 | 63 | 319 | 0.0 | 1.0 | 0.00 | 0.00 | 0.00 | 66 | 1012.4 |
| 20260503055104 | 65 | 333 | 0.0 | 1.0 | 0.00 | 0.00 | 0.00 | 62 | 1012.5 |
| 20260503054104 | 66 | 335 | 0.0 | 1.0 | 0.00 | 0.00 | 0.00 | 59 | 1012.4 |
| 20260503053603 | 66 | 335 | 0.0 | 0.0 | 0.00 | 0.00 | 0.00 | 55 | 1012.3 |
| 20260503053104 | 66 | 335 | 0.0 | 0.0 | 0.00 | 0.00 | 0.00 | 52 | 1012.2 |
| 20260503052604 | 66 | 335 | 0.0 | 0.0 | 0.00 | 0.00 | 0.00 | 51 | 1012.2 |
| 20260503052104 | 66 | 335 | 0.0 | 1.0 | 0.00 | 0.00 | 0.00 | 52 | 1012.3 |
| 20260503051605 | 66 | 335 | 0.0 | 2.0 | 0.00 | 0.00 | 0.00 | 46 | 1012.3 |
| 20260503051104 | 67 | 335 | 0.0 | 3.0 | 0.00 | 0.00 | 0.00 | 49 | 1012.2 |
| 20260503050604 | 68 | 340 | 1.0 | 3.0 | 0.00 | 0.00 | 0.00 | 47 | 1012.2 |
| 20260503050105 | 69 | 342 | 2.0 | 3.0 | 0.00 | 0.00 | 0.00 | 49 | 1012.1 |
| 20260503045605 | 69 | 350 | 2.0 | 3.0 | 0.00 | 0.00 | 0.00 | 50 | 1012.1 |
| 20260503044604 | 69 | 355 | 0.0 | 3.0 | 0.00 | 0.00 | 0.00 | 36 | 1012.0 |
| 20260503044103 | 69 | 355 | 0.0 | 2.0 | 0.00 | 0.00 | 0.00 | 32 | 1011.8 |
| 20260503043604 | 69 | 352 | 0.0 | 2.0 | 0.00 | 0.00 | 0.00 | 35 | 1011.7 |
| 20260503043104 | 69 | 349 | 0.0 | 1.0 | 0.00 | 0.00 | 0.00 | 39 | 1011.7 |
| 20260503042604 | 69 | 349 | 0.0 | 0.0 | 0.00 | 0.00 | 0.00 | 41 | 1011.6 |
| 20260503042103 | 70 | 349 | 0.0 | 1.0 | 0.00 | 0.00 | 0.00 | 47 | 1011.4 |
| 20260503041606 | 70 | 349 | 0.0 | 1.0 | 0.00 | 0.00 | 0.00 | 45 | 1011.5 |
| 20260503041104 | 70 | 350 | 0.0 | 0.0 | 0.00 | 0.00 | 0.00 | 49 | 1011.4 |